Year,Month,Day,Hour,Minute,Value (Times are PST for temperature in C)
2008,07,21,00,00,14.10
2008,07,21,00,01,14.10
2008,07,21,00,02,14.10
2008,07,21,00,03,14.10
2008,07,21,00,04,14.10
2008,07,21,00,05,14.10
2008,07,21,00,06,14.10
2008,07,21,00,07,14.20
2008,07,21,00,08,14.20
2008,07,21,00,09,14.20
2008,07,21,00,10,14.20
2008,07,21,00,11,14.20
2008,07,21,00,12,14.10
2008,07,21,00,13,14.10
2008,07,21,00,14,14.10
2008,07,21,00,15,14.10
2008,07,21,00,16,14.00
2008,07,21,00,17,14.00
2008,07,21,00,18,14.00
2008,07,21,00,19,13.90
2008,07,21,00,20,13.90
2008,07,21,00,21,13.90
2008,07,21,00,22,13.90
2008,07,21,00,23,13.90
2008,07,21,00,24,13.90
2008,07,21,00,25,13.80
2008,07,21,00,26,13.80
2008,07,21,00,27,13.80
2008,07,21,00,28,13.80
2008,07,21,00,29,13.80
2008,07,21,00,30,13.80
2008,07,21,00,31,13.80
2008,07,21,00,32,13.80
2008,07,21,00,33,13.80
2008,07,21,00,34,13.80
2008,07,21,00,35,13.80
2008,07,21,00,36,13.80
2008,07,21,00,37,13.70
2008,07,21,00,38,13.70
2008,07,21,00,39,13.70
2008,07,21,00,40,13.70
2008,07,21,00,41,13.70
2008,07,21,00,42,13.70
2008,07,21,00,43,13.60
2008,07,21,00,44,13.60
2008,07,21,00,45,13.70
2008,07,21,00,46,13.70
2008,07,21,00,47,13.70
2008,07,21,00,48,13.70
2008,07,21,00,49,13.60
2008,07,21,00,50,13.60
2008,07,21,00,51,13.60
2008,07,21,00,52,13.60
2008,07,21,00,53,13.60
2008,07,21,00,54,13.60
2008,07,21,00,55,13.60
2008,07,21,00,56,13.60
2008,07,21,00,57,13.50
2008,07,21,00,58,13.50
2008,07,21,00,59,13.50
2008,07,21,01,00,13.50
2008,07,21,01,01,13.50
2008,07,21,01,02,13.50
2008,07,21,01,03,13.40
2008,07,21,01,04,13.40
2008,07,21,01,05,13.40
2008,07,21,01,06,13.40
2008,07,21,01,07,13.40
2008,07,21,01,08,13.30
2008,07,21,01,09,13.30
2008,07,21,01,10,13.30
2008,07,21,01,11,13.30
2008,07,21,01,12,13.30
2008,07,21,01,13,13.30
2008,07,21,01,14,13.30
2008,07,21,01,15,13.30
2008,07,21,01,16,13.40
2008,07,21,01,17,13.30
2008,07,21,01,18,13.30
2008,07,21,01,19,13.30
2008,07,21,01,20,13.30
2008,07,21,01,21,13.20
2008,07,21,01,22,13.20
2008,07,21,01,23,13.20
2008,07,21,01,24,13.20
2008,07,21,01,25,13.20
2008,07,21,01,26,13.20
2008,07,21,01,27,13.20
2008,07,21,01,28,13.20
2008,07,21,01,29,13.20
2008,07,21,01,30,13.20
2008,07,21,01,31,13.20
2008,07,21,01,32,13.20
2008,07,21,01,33,13.20
2008,07,21,01,34,13.20
2008,07,21,01,35,13.10
2008,07,21,01,36,13.10
2008,07,21,01,37,13.10
2008,07,21,01,38,13.10
2008,07,21,01,39,13.10
2008,07,21,01,40,13.10
2008,07,21,01,41,13.00
2008,07,21,01,42,13.00
2008,07,21,01,43,13.00
2008,07,21,01,44,13.00
2008,07,21,01,45,13.00
2008,07,21,01,46,12.90
2008,07,21,01,47,12.90
2008,07,21,01,48,12.90
2008,07,21,01,49,12.90
2008,07,21,01,50,12.90
2008,07,21,01,51,12.90
2008,07,21,01,52,13.00
2008,07,21,01,53,13.00
2008,07,21,01,54,12.90
2008,07,21,01,55,12.90
2008,07,21,01,56,12.90
2008,07,21,01,57,13.00
2008,07,21,01,58,13.00
2008,07,21,01,59,13.10
2008,07,21,02,00,13.10
2008,07,21,02,01,13.10
2008,07,21,02,02,13.10
2008,07,21,02,03,13.20
2008,07,21,02,04,13.20
2008,07,21,02,05,13.10
2008,07,21,02,06,13.10
2008,07,21,02,07,13.10
2008,07,21,02,08,13.10
2008,07,21,02,09,13.00
2008,07,21,02,10,13.00
2008,07,21,02,11,12.90
2008,07,21,02,12,12.90
2008,07,21,02,13,12.90
2008,07,21,02,14,12.90
2008,07,21,02,15,12.90
2008,07,21,02,16,12.80
2008,07,21,02,17,12.80
2008,07,21,02,18,12.80
2008,07,21,02,19,12.80
2008,07,21,02,20,12.70
2008,07,21,02,21,12.70
2008,07,21,02,22,12.70
2008,07,21,02,23,12.70
2008,07,21,02,24,12.70
2008,07,21,02,25,12.70
2008,07,21,02,26,12.70
2008,07,21,02,27,12.70
2008,07,21,02,28,12.70
2008,07,21,02,29,12.70
2008,07,21,02,30,12.70
2008,07,21,02,31,12.70
2008,07,21,02,32,12.60
2008,07,21,02,33,12.60
2008,07,21,02,34,12.60
2008,07,21,02,35,12.60
2008,07,21,02,36,12.60
2008,07,21,02,37,12.60
2008,07,21,02,38,12.60
2008,07,21,02,39,12.60
2008,07,21,02,40,12.60
2008,07,21,02,41,12.60
2008,07,21,02,42,12.60
2008,07,21,02,43,12.60
2008,07,21,02,44,12.60
2008,07,21,02,45,12.60
2008,07,21,02,46,12.60
2008,07,21,02,47,12.60
2008,07,21,02,48,12.60
2008,07,21,02,49,12.60
2008,07,21,02,50,12.60
2008,07,21,02,51,12.50
2008,07,21,02,52,12.50
2008,07,21,02,53,12.50
2008,07,21,02,54,12.40
2008,07,21,02,55,12.40
2008,07,21,02,56,12.40
2008,07,21,02,57,12.40
2008,07,21,02,58,12.40
2008,07,21,02,59,12.40
2008,07,21,03,00,12.30
2008,07,21,03,01,12.30
2008,07,21,03,02,12.30
2008,07,21,03,03,12.30
2008,07,21,03,04,12.30
2008,07,21,03,05,12.40
2008,07,21,03,06,12.40
2008,07,21,03,07,12.40
2008,07,21,03,08,12.50
2008,07,21,03,09,12.50
2008,07,21,03,10,12.50
2008,07,21,03,11,12.50
2008,07,21,03,12,12.40
2008,07,21,03,13,12.40
2008,07,21,03,14,12.40
2008,07,21,03,15,12.40
2008,07,21,03,16,12.40
2008,07,21,03,17,12.30
2008,07,21,03,18,12.30
2008,07,21,03,19,12.30
2008,07,21,03,20,12.30
2008,07,21,03,21,12.20
2008,07,21,03,22,12.20
2008,07,21,03,23,12.20
2008,07,21,03,24,12.20
2008,07,21,03,25,12.20
2008,07,21,03,26,12.20
2008,07,21,03,27,12.20
2008,07,21,03,28,12.20
2008,07,21,03,29,12.20
2008,07,21,03,30,12.20
2008,07,21,03,31,12.20
2008,07,21,03,32,12.10
2008,07,21,03,33,12.10
2008,07,21,03,34,12.10
2008,07,21,03,35,12.10
2008,07,21,03,36,12.10
2008,07,21,03,37,12.10
2008,07,21,03,38,12.10
2008,07,21,03,39,12.10
2008,07,21,03,40,12.10
2008,07,21,03,41,12.10
2008,07,21,03,42,12.10
2008,07,21,03,43,12.10
2008,07,21,03,44,12.10
2008,07,21,03,45,12.10
2008,07,21,03,46,12.10
2008,07,21,03,47,12.10
2008,07,21,03,48,12.00
2008,07,21,03,49,12.00
2008,07,21,03,50,12.00
2008,07,21,03,51,12.00
2008,07,21,03,52,12.00
2008,07,21,03,53,11.90
2008,07,21,03,54,11.90
2008,07,21,03,55,11.90
2008,07,21,03,56,11.90
2008,07,21,03,57,11.90
2008,07,21,03,58,11.90
2008,07,21,03,59,11.90
2008,07,21,04,00,11.90
2008,07,21,04,01,11.90
2008,07,21,04,02,11.90
2008,07,21,04,03,11.90
2008,07,21,04,04,11.90
2008,07,21,04,15,11.80
2008,07,21,04,16,11.80
2008,07,21,04,17,11.80
2008,07,21,04,18,11.80
2008,07,21,04,19,11.80
2008,07,21,04,20,11.80
2008,07,21,04,21,11.80
2008,07,21,04,22,11.80
2008,07,21,04,23,11.80
2008,07,21,04,24,11.80
2008,07,21,04,25,11.80
2008,07,21,04,26,11.80
2008,07,21,04,27,11.80
2008,07,21,04,28,11.70
2008,07,21,04,29,11.70
2008,07,21,04,30,11.70
2008,07,21,04,31,11.70
2008,07,21,04,32,11.70
2008,07,21,04,33,11.70
2008,07,21,04,34,11.70
2008,07,21,04,35,11.60
2008,07,21,04,36,11.60
2008,07,21,04,37,11.60
2008,07,21,04,38,11.60
2008,07,21,04,39,11.60
2008,07,21,04,40,11.60
2008,07,21,04,41,11.60
2008,07,21,04,42,11.60
2008,07,21,04,43,11.60
2008,07,21,04,44,11.60
2008,07,21,04,45,11.60
2008,07,21,04,46,11.60
2008,07,21,04,47,11.50
2008,07,21,04,48,11.50
2008,07,21,04,49,11.50
2008,07,21,04,50,11.50
2008,07,21,04,51,11.40
2008,07,21,04,52,11.50
2008,07,21,04,53,11.50
2008,07,21,04,54,11.50
2008,07,21,04,55,11.50
2008,07,21,04,56,11.40
2008,07,21,04,57,11.50
2008,07,21,04,58,11.50
2008,07,21,04,59,11.50
2008,07,21,05,00,11.50
2008,07,21,05,01,11.50
2008,07,21,05,02,11.50
2008,07,21,05,03,11.50
2008,07,21,05,04,11.50
2008,07,21,05,05,11.50
2008,07,21,05,06,11.60
2008,07,21,05,07,11.60
2008,07,21,05,08,11.60
2008,07,21,05,09,11.60
2008,07,21,05,10,11.60
2008,07,21,05,11,11.60
2008,07,21,05,12,11.60
2008,07,21,05,13,11.60
2008,07,21,05,14,11.50
2008,07,21,05,15,11.50
2008,07,21,05,16,11.50
2008,07,21,05,17,11.40
2008,07,21,05,18,11.40
2008,07,21,05,19,11.40
2008,07,21,05,20,11.40
2008,07,21,05,21,11.40
2008,07,21,05,22,11.40
2008,07,21,05,23,11.40
2008,07,21,05,24,11.40
2008,07,21,05,25,11.30
2008,07,21,05,26,11.30
2008,07,21,05,27,11.30
2008,07,21,05,28,11.30
2008,07,21,05,29,11.30
2008,07,21,05,30,11.30
2008,07,21,05,31,11.30
2008,07,21,05,32,11.30
2008,07,21,05,33,11.30
2008,07,21,05,34,11.30
2008,07,21,05,35,11.30
2008,07,21,05,36,11.30
2008,07,21,05,37,11.30
2008,07,21,05,38,11.30
2008,07,21,05,39,11.30
2008,07,21,05,40,11.30
2008,07,21,05,41,11.30
2008,07,21,05,42,11.30
2008,07,21,05,43,11.30
2008,07,21,05,44,11.30
2008,07,21,05,45,11.30
2008,07,21,05,46,11.30
2008,07,21,05,47,11.30
2008,07,21,05,48,11.20
2008,07,21,05,49,11.20
2008,07,21,05,50,11.30
2008,07,21,05,51,11.30
2008,07,21,05,52,11.30
2008,07,21,05,53,11.30
2008,07,21,05,54,11.30
2008,07,21,05,55,11.40
2008,07,21,05,56,11.40
2008,07,21,05,57,11.40
2008,07,21,05,58,11.40
2008,07,21,05,59,11.40
2008,07,21,06,00,11.40
2008,07,21,06,01,11.40
2008,07,21,06,02,11.40
2008,07,21,06,03,11.40
2008,07,21,06,04,11.40
2008,07,21,06,05,11.40
2008,07,21,06,06,11.30
2008,07,21,06,07,11.30
2008,07,21,06,08,11.30
2008,07,21,06,09,11.30
2008,07,21,06,10,11.30
2008,07,21,06,11,11.30
2008,07,21,06,12,11.30
2008,07,21,06,13,11.30
2008,07,21,06,14,11.30
2008,07,21,06,15,11.30
2008,07,21,06,16,11.30
2008,07,21,06,17,11.30
2008,07,21,06,18,11.30
2008,07,21,06,19,11.30
2008,07,21,06,20,11.30
2008,07,21,06,21,11.30
2008,07,21,06,22,11.30
2008,07,21,06,23,11.30
2008,07,21,06,24,11.30
2008,07,21,06,25,11.30
2008,07,21,06,26,11.30
2008,07,21,06,27,11.30
2008,07,21,06,28,11.30
2008,07,21,06,29,11.30
2008,07,21,06,30,11.30
2008,07,21,06,31,11.30
2008,07,21,06,32,11.30
2008,07,21,06,33,11.30
2008,07,21,06,34,11.30
2008,07,21,06,35,11.40
2008,07,21,06,36,11.40
2008,07,21,06,37,11.40
2008,07,21,06,38,11.40
2008,07,21,06,39,11.40
2008,07,21,06,40,11.40
2008,07,21,06,41,11.40
2008,07,21,06,42,11.50
2008,07,21,06,43,11.50
2008,07,21,06,44,11.50
2008,07,21,06,45,11.50
2008,07,21,06,46,11.60
2008,07,21,06,47,11.60
2008,07,21,06,48,11.60
2008,07,21,06,49,11.60
2008,07,21,06,50,11.70
2008,07,21,06,51,11.80
2008,07,21,06,52,11.90
2008,07,21,06,53,12.00
2008,07,21,06,54,12.10
2008,07,21,06,55,12.20
2008,07,21,06,56,12.30
2008,07,21,06,57,12.50
2008,07,21,06,58,12.60
2008,07,21,06,59,12.70
2008,07,21,07,00,12.70
2008,07,21,07,01,12.80
2008,07,21,07,02,12.80
2008,07,21,07,03,12.90
2008,07,21,07,04,13.00
2008,07,21,07,05,13.10
2008,07,21,07,06,13.20
2008,07,21,07,07,13.20
2008,07,21,07,08,13.30
2008,07,21,07,09,13.40
2008,07,21,07,10,13.50
2008,07,21,07,11,13.60
2008,07,21,07,12,13.70
2008,07,21,07,13,13.80
2008,07,21,07,14,13.80
2008,07,21,07,15,13.90
2008,07,21,07,16,14.00
2008,07,21,07,17,14.10
2008,07,21,07,18,14.20
2008,07,21,07,19,14.20
2008,07,21,07,20,14.30
2008,07,21,07,21,14.30
2008,07,21,07,22,14.30
2008,07,21,07,23,14.40
2008,07,21,07,24,14.40
2008,07,21,07,25,14.40
2008,07,21,07,26,14.40
2008,07,21,07,27,14.40
2008,07,21,07,28,14.40
2008,07,21,07,29,14.40
2008,07,21,07,30,14.40
2008,07,21,07,31,14.40
2008,07,21,07,32,14.40
2008,07,21,07,33,14.40
2008,07,21,07,34,14.50
2008,07,21,07,35,14.50
2008,07,21,07,36,14.50
2008,07,21,07,37,14.50
2008,07,21,07,38,14.50
2008,07,21,07,39,14.50
2008,07,21,07,40,14.40
2008,07,21,07,41,14.40
2008,07,21,07,42,14.40
2008,07,21,07,43,14.40
2008,07,21,07,44,14.50
2008,07,21,07,45,14.50
2008,07,21,07,46,14.50
2008,07,21,07,47,14.50
2008,07,21,07,48,14.50
2008,07,21,07,49,14.50
2008,07,21,07,50,14.50
2008,07,21,07,51,14.50
2008,07,21,07,52,14.50
2008,07,21,07,53,14.50
2008,07,21,07,54,14.60
2008,07,21,07,55,14.60
2008,07,21,07,56,14.60
2008,07,21,07,57,14.70
2008,07,21,07,58,14.80
2008,07,21,07,59,14.80
2008,07,21,08,00,14.80
2008,07,21,08,01,14.80
2008,07,21,08,02,14.80
2008,07,21,08,03,14.80
2008,07,21,08,04,14.80
2008,07,21,08,05,14.80
2008,07,21,08,06,14.80
2008,07,21,08,07,14.80
2008,07,21,08,08,14.80
2008,07,21,08,09,14.90
2008,07,21,08,10,15.00
2008,07,21,08,11,15.00
2008,07,21,08,12,15.00
2008,07,21,08,13,15.00
2008,07,21,08,14,15.00
2008,07,21,08,15,15.00
2008,07,21,08,16,15.00
2008,07,21,08,17,15.00
2008,07,21,08,18,15.00
2008,07,21,08,19,15.10
2008,07,21,08,20,15.20
2008,07,21,08,21,15.20
2008,07,21,08,22,15.30
2008,07,21,08,23,15.30
2008,07,21,08,24,15.40
2008,07,21,08,25,15.40
2008,07,21,08,26,15.40
2008,07,21,08,27,15.40
2008,07,21,08,28,15.40
2008,07,21,08,29,15.40
2008,07,21,08,30,15.40
2008,07,21,08,31,15.50
2008,07,21,08,32,15.50
2008,07,21,08,33,15.50
2008,07,21,08,34,15.50
2008,07,21,08,35,15.60
2008,07,21,08,36,15.60
2008,07,21,08,37,15.70
2008,07,21,08,38,15.70
2008,07,21,08,39,15.70
2008,07,21,08,40,15.70
2008,07,21,08,41,15.70
2008,07,21,08,42,15.80
2008,07,21,08,43,15.80
2008,07,21,08,44,15.80
2008,07,21,08,45,15.80
2008,07,21,08,46,15.80
2008,07,21,08,47,15.70
2008,07,21,08,48,15.70
2008,07,21,08,49,15.70
2008,07,21,08,50,15.70
2008,07,21,08,51,15.70
2008,07,21,08,52,15.70
2008,07,21,08,53,15.70
2008,07,21,08,54,15.70
2008,07,21,08,55,15.70
2008,07,21,08,56,15.60
2008,07,21,08,57,15.60
2008,07,21,08,58,15.70
2008,07,21,08,59,15.80
2008,07,21,09,00,15.90
2008,07,21,09,01,15.90
2008,07,21,09,02,15.90
2008,07,21,09,03,15.90
2008,07,21,09,04,15.90
2008,07,21,09,05,15.90
2008,07,21,09,06,16.00
2008,07,21,09,07,16.10
2008,07,21,09,08,16.20
2008,07,21,09,09,16.30
2008,07,21,09,10,16.40
2008,07,21,09,11,16.50
2008,07,21,09,12,16.60
2008,07,21,09,13,16.70
2008,07,21,09,14,16.90
2008,07,21,09,15,17.00
2008,07,21,09,16,17.30
2008,07,21,09,17,17.40
2008,07,21,09,18,17.50
2008,07,21,09,19,17.60
2008,07,21,09,20,17.60
2008,07,21,09,21,17.70
2008,07,21,09,22,17.70
2008,07,21,09,23,17.70
2008,07,21,09,24,17.80
2008,07,21,09,25,17.80
2008,07,21,09,26,17.80
2008,07,21,09,27,17.90
2008,07,21,09,28,17.90
2008,07,21,09,29,17.90
2008,07,21,09,30,17.90
2008,07,21,09,31,17.90
2008,07,21,09,32,17.90
2008,07,21,09,33,17.80
2008,07,21,09,34,17.80
2008,07,21,09,35,17.80
2008,07,21,09,36,17.90
2008,07,21,09,37,17.90
2008,07,21,09,38,17.80
2008,07,21,09,39,17.90
2008,07,21,09,40,17.80
2008,07,21,09,41,17.80
2008,07,21,09,42,17.80
2008,07,21,09,43,17.80
2008,07,21,09,44,17.80
2008,07,21,09,45,17.80
2008,07,21,09,46,17.90
2008,07,21,09,47,17.90
2008,07,21,09,48,18.00
2008,07,21,09,49,18.10
2008,07,21,09,50,18.00
2008,07,21,09,51,18.00
2008,07,21,09,52,18.00
2008,07,21,09,53,18.00
2008,07,21,09,54,18.10
2008,07,21,09,55,18.10
2008,07,21,09,56,18.10
2008,07,21,09,57,18.20
2008,07,21,09,58,18.20
2008,07,21,09,59,18.30
2008,07,21,10,00,18.30
2008,07,21,10,01,18.40
2008,07,21,10,02,18.30
2008,07,21,10,03,18.40
2008,07,21,10,04,18.40
2008,07,21,10,05,18.40
2008,07,21,10,06,18.50
2008,07,21,10,07,18.50
2008,07,21,10,08,18.50
2008,07,21,10,09,18.60
2008,07,21,10,10,18.60
2008,07,21,10,11,18.60
2008,07,21,10,12,18.60
2008,07,21,10,13,18.70
2008,07,21,10,14,18.80
2008,07,21,10,15,18.80
2008,07,21,10,16,18.80
2008,07,21,10,17,18.80
2008,07,21,10,18,18.90
2008,07,21,10,19,18.80
2008,07,21,10,20,18.90
2008,07,21,10,21,18.90
2008,07,21,10,22,19.00
2008,07,21,10,23,19.10
2008,07,21,10,24,19.10
2008,07,21,10,25,19.10
2008,07,21,10,26,19.10
2008,07,21,10,27,19.20
2008,07,21,10,28,19.30
2008,07,21,10,29,19.30
2008,07,21,10,30,19.30
2008,07,21,10,31,19.30
2008,07,21,10,32,19.20
2008,07,21,10,33,19.20
2008,07,21,10,34,19.10
2008,07,21,10,35,19.00
2008,07,21,10,36,19.00
2008,07,21,10,37,19.00
2008,07,21,10,38,19.10
2008,07,21,10,39,19.10
2008,07,21,10,40,19.20
2008,07,21,10,41,19.30
2008,07,21,10,42,19.10
2008,07,21,10,43,18.90
2008,07,21,10,44,18.80
2008,07,21,10,45,18.70
2008,07,21,10,46,18.80
2008,07,21,10,47,18.80
2008,07,21,10,48,19.00
2008,07,21,10,49,19.10
2008,07,21,10,50,19.30
2008,07,21,10,51,19.40
2008,07,21,10,52,19.50
2008,07,21,10,53,19.60
2008,07,21,10,54,19.60
2008,07,21,10,55,19.60
2008,07,21,10,56,19.60
2008,07,21,10,57,19.60
2008,07,21,10,58,19.50
2008,07,21,10,59,19.50
2008,07,21,11,00,19.40
2008,07,21,11,01,19.50
2008,07,21,11,02,19.60
2008,07,21,11,03,19.50
2008,07,21,11,04,19.50
2008,07,21,11,05,19.50
2008,07,21,11,06,19.50
2008,07,21,11,07,19.50
2008,07,21,11,08,19.50
2008,07,21,11,09,19.60
2008,07,21,11,10,19.70
2008,07,21,11,11,19.70
2008,07,21,11,12,19.70
2008,07,21,11,13,19.70
2008,07,21,11,14,19.70
2008,07,21,11,15,19.70
2008,07,21,11,16,19.70
2008,07,21,11,17,19.70
2008,07,21,11,18,19.70
2008,07,21,11,19,19.70
2008,07,21,11,20,19.70
2008,07,21,11,21,19.70
2008,07,21,11,22,19.70
2008,07,21,11,23,19.70
2008,07,21,11,24,19.70
2008,07,21,11,25,19.70
2008,07,21,11,26,19.70
2008,07,21,11,27,19.60
2008,07,21,11,28,19.70
2008,07,21,11,29,19.70
2008,07,21,11,30,19.80
2008,07,21,11,31,19.70
2008,07,21,11,32,19.70
2008,07,21,11,33,19.70
2008,07,21,11,34,19.70
2008,07,21,11,35,19.80
2008,07,21,11,36,19.80
2008,07,21,11,37,19.80
2008,07,21,11,38,19.90
2008,07,21,11,39,20.00
2008,07,21,11,40,20.00
2008,07,21,11,41,20.10
2008,07,21,11,42,20.10
2008,07,21,11,43,20.10
2008,07,21,11,44,20.00
2008,07,21,11,45,20.10
2008,07,21,11,46,20.10
2008,07,21,11,47,20.10
2008,07,21,11,48,20.00
2008,07,21,11,49,19.90
2008,07,21,11,50,19.80
2008,07,21,11,51,19.70
2008,07,21,11,52,19.70
2008,07,21,11,53,19.70
2008,07,21,11,54,19.70
2008,07,21,11,55,19.80
2008,07,21,11,56,19.80
2008,07,21,11,57,19.80
2008,07,21,11,58,19.80
2008,07,21,11,59,19.80
2008,07,21,12,00,19.90
2008,07,21,12,01,19.90
2008,07,21,12,02,19.90
2008,07,21,12,03,19.90
2008,07,21,12,04,19.90
2008,07,21,12,05,19.80
2008,07,21,12,06,19.70
2008,07,21,12,07,19.80
2008,07,21,12,08,19.80
2008,07,21,12,09,19.80
2008,07,21,12,10,19.90
2008,07,21,12,11,20.00
2008,07,21,12,12,19.90
2008,07,21,12,13,19.80
2008,07,21,12,14,19.80
2008,07,21,12,15,19.90
2008,07,21,12,16,19.90
2008,07,21,12,17,20.00
2008,07,21,12,18,20.10
2008,07,21,12,19,20.10
2008,07,21,12,20,20.10
2008,07,21,12,21,20.20
2008,07,21,12,22,20.20
2008,07,21,12,23,20.20
2008,07,21,12,24,20.20
2008,07,21,12,25,20.20
2008,07,21,12,26,20.20
2008,07,21,12,27,20.30
2008,07,21,12,28,20.40
2008,07,21,12,29,20.40
2008,07,21,12,30,20.30
2008,07,21,12,31,20.30
2008,07,21,12,32,20.30
2008,07,21,12,33,20.30
2008,07,21,12,34,20.40
2008,07,21,12,35,20.50
2008,07,21,12,36,20.60
2008,07,21,12,37,20.60
2008,07,21,12,38,20.70
2008,07,21,12,39,20.80
2008,07,21,12,40,20.90
2008,07,21,12,41,21.00
2008,07,21,12,42,21.10
2008,07,21,12,43,21.20
2008,07,21,12,44,21.40
2008,07,21,12,45,21.60
2008,07,21,12,46,21.70
2008,07,21,12,47,21.60
2008,07,21,12,48,21.50
2008,07,21,12,49,21.40
2008,07,21,12,50,21.30
2008,07,21,12,51,21.20
2008,07,21,12,52,21.10
2008,07,21,12,53,21.00
2008,07,21,12,54,20.90
2008,07,21,12,55,20.80
2008,07,21,12,56,20.80
2008,07,21,12,57,20.80
2008,07,21,12,58,20.90
2008,07,21,12,59,21.00
2008,07,21,13,00,21.20
2008,07,21,13,01,21.20
2008,07,21,13,02,21.20
2008,07,21,13,03,21.20
2008,07,21,13,04,21.20
2008,07,21,13,05,21.30
2008,07,21,13,06,21.50
2008,07,21,13,07,21.60
2008,07,21,13,08,21.60
2008,07,21,13,09,21.60
2008,07,21,13,10,21.60
2008,07,21,13,11,21.60
2008,07,21,13,12,21.70
2008,07,21,13,13,21.70
2008,07,21,13,14,21.70
2008,07,21,13,15,21.80
2008,07,21,13,16,21.90
2008,07,21,13,17,22.00
2008,07,21,13,18,22.20
2008,07,21,13,19,22.30
2008,07,21,13,20,22.30
2008,07,21,13,21,22.10
2008,07,21,13,22,22.00
2008,07,21,13,23,21.90
2008,07,21,13,24,21.90
2008,07,21,13,25,21.90
2008,07,21,13,26,22.00
2008,07,21,13,27,22.10
2008,07,21,13,28,22.10
2008,07,21,13,29,22.10
2008,07,21,13,30,22.20
2008,07,21,13,31,22.30
2008,07,21,13,32,22.40
2008,07,21,13,33,22.60
2008,07,21,13,34,22.70
2008,07,21,13,35,22.80
2008,07,21,13,36,22.80
2008,07,21,13,37,22.90
2008,07,21,13,38,23.10
2008,07,21,13,39,23.20
2008,07,21,13,40,23.40
2008,07,21,13,41,23.20
2008,07,21,13,42,23.00
2008,07,21,13,43,22.70
2008,07,21,13,44,22.50
2008,07,21,13,45,22.10
2008,07,21,13,46,21.90
2008,07,21,13,47,21.80
2008,07,21,13,48,21.70
2008,07,21,13,49,21.70
2008,07,21,13,50,21.70
2008,07,21,13,51,21.70
2008,07,21,13,52,21.70
2008,07,21,13,53,21.50
2008,07,21,13,54,21.40
2008,07,21,13,55,21.30
2008,07,21,13,56,21.20
2008,07,21,13,57,21.00
2008,07,21,13,58,20.90
2008,07,21,13,59,20.80
2008,07,21,14,00,20.80
2008,07,21,14,01,20.80
2008,07,21,14,02,20.90
2008,07,21,14,03,21.00
2008,07,21,14,04,21.00
2008,07,21,14,05,21.00
2008,07,21,14,06,21.00
2008,07,21,14,07,21.10
2008,07,21,14,08,21.10
2008,07,21,14,09,21.20
2008,07,21,14,10,21.30
2008,07,21,14,11,21.40
2008,07,21,14,12,21.40
2008,07,21,14,13,21.50
2008,07,21,14,14,21.60
2008,07,21,14,15,21.60
2008,07,21,14,16,21.60
2008,07,21,14,17,21.50
2008,07,21,14,18,21.40
2008,07,21,14,19,21.40
2008,07,21,14,20,21.30
2008,07,21,14,21,21.20
2008,07,21,14,22,21.20
2008,07,21,14,23,21.00
2008,07,21,14,24,20.80
2008,07,21,14,25,20.60
2008,07,21,14,26,20.40
2008,07,21,14,27,20.30
2008,07,21,14,28,20.30
2008,07,21,14,29,20.20
2008,07,21,14,30,20.30
2008,07,21,14,31,20.30
2008,07,21,14,32,20.30
2008,07,21,14,33,20.40
2008,07,21,14,34,20.50
2008,07,21,14,35,20.60
2008,07,21,14,36,20.60
2008,07,21,14,37,20.70
2008,07,21,14,38,20.80
2008,07,21,14,39,20.80
2008,07,21,14,40,20.80
2008,07,21,14,41,20.90
2008,07,21,14,42,20.90
2008,07,21,14,43,20.90
2008,07,21,14,44,20.90
2008,07,21,14,45,20.90
2008,07,21,14,46,21.00
2008,07,21,14,47,21.10
2008,07,21,14,48,21.30
2008,07,21,14,49,21.40
2008,07,21,14,50,21.60
2008,07,21,14,51,21.80
2008,07,21,14,52,21.90
2008,07,21,14,53,22.00
2008,07,21,14,54,22.10
2008,07,21,14,55,22.10
2008,07,21,14,56,22.20
2008,07,21,14,57,22.20
2008,07,21,14,58,22.30
2008,07,21,14,59,22.30
2008,07,21,15,00,22.40
2008,07,21,15,01,22.40
2008,07,21,15,02,22.50
2008,07,21,15,03,22.60
2008,07,21,15,04,22.70
2008,07,21,15,05,22.70
2008,07,21,15,06,22.80
2008,07,21,15,07,22.80
2008,07,21,15,08,22.90
2008,07,21,15,09,23.00
2008,07,21,15,10,23.10
2008,07,21,15,11,23.20
2008,07,21,15,12,23.30
2008,07,21,15,13,23.40
2008,07,21,15,14,23.30
2008,07,21,15,15,23.20
2008,07,21,15,16,23.10
2008,07,21,15,17,23.10
2008,07,21,15,18,23.10
2008,07,21,15,19,23.10
2008,07,21,15,20,23.00
2008,07,21,15,21,22.80
2008,07,21,15,22,22.60
2008,07,21,15,23,22.50
2008,07,21,15,24,22.40
2008,07,21,15,25,22.20
2008,07,21,15,26,22.10
2008,07,21,15,27,22.10
2008,07,21,15,28,22.10
2008,07,21,15,29,22.10
2008,07,21,15,30,22.20
2008,07,21,15,31,22.20
2008,07,21,15,32,22.30
2008,07,21,15,33,22.30
2008,07,21,15,34,22.30
2008,07,21,15,35,22.20
2008,07,21,15,36,22.20
2008,07,21,15,37,22.00
2008,07,21,15,38,21.90
2008,07,21,15,39,21.90
2008,07,21,15,40,21.80
2008,07,21,15,41,21.80
2008,07,21,15,42,21.80
2008,07,21,15,43,21.90
2008,07,21,15,44,21.90
2008,07,21,15,45,21.90
2008,07,21,15,46,21.90
2008,07,21,15,47,21.80
2008,07,21,15,48,21.80
2008,07,21,15,49,21.80
2008,07,21,15,50,21.80
2008,07,21,15,51,21.70
2008,07,21,15,52,21.70
2008,07,21,15,53,21.80
2008,07,21,15,54,21.80
2008,07,21,15,55,21.90
2008,07,21,15,56,22.00
2008,07,21,15,57,22.00
2008,07,21,15,58,22.00
2008,07,21,15,59,22.00
2008,07,21,16,00,22.00
2008,07,21,16,01,22.00
2008,07,21,16,02,22.00
2008,07,21,16,03,22.10
2008,07,21,16,04,22.10
2008,07,21,16,05,22.10
2008,07,21,16,06,22.10
2008,07,21,16,07,22.10
2008,07,21,16,08,22.10
2008,07,21,16,09,22.10
2008,07,21,16,10,22.10
2008,07,21,16,11,21.90
2008,07,21,16,12,21.90
2008,07,21,16,13,21.90
2008,07,21,16,14,22.00
2008,07,21,16,15,22.00
2008,07,21,16,16,22.00
2008,07,21,16,17,21.90
2008,07,21,16,18,22.00
2008,07,21,16,19,22.00
2008,07,21,16,20,22.10
2008,07,21,16,21,22.10
2008,07,21,16,22,22.10
2008,07,21,16,23,22.10
2008,07,21,16,24,22.00
2008,07,21,16,25,21.90
2008,07,21,16,26,21.90
2008,07,21,16,27,21.90
2008,07,21,16,28,21.90
2008,07,21,16,29,21.90
2008,07,21,16,30,22.00
2008,07,21,16,31,22.00
2008,07,21,16,32,21.90
2008,07,21,16,33,21.80
2008,07,21,16,34,21.80
2008,07,21,16,35,21.70
2008,07,21,16,36,21.70
2008,07,21,16,37,21.70
2008,07,21,16,38,21.70
2008,07,21,16,39,21.80
2008,07,21,16,40,21.70
2008,07,21,16,41,21.70
2008,07,21,16,42,21.70
2008,07,21,16,43,21.80
2008,07,21,16,44,21.80
2008,07,21,16,45,21.90
2008,07,21,16,46,22.00
2008,07,21,16,47,22.10
2008,07,21,16,48,22.10
2008,07,21,16,49,22.10
2008,07,21,16,50,22.20
2008,07,21,16,51,22.20
2008,07,21,16,52,22.30
2008,07,21,16,53,22.40
2008,07,21,16,54,22.40
2008,07,21,16,55,22.40
2008,07,21,16,56,22.30
2008,07,21,16,57,22.20
2008,07,21,16,58,22.20
2008,07,21,16,59,22.10
2008,07,21,17,00,22.00
2008,07,21,17,01,21.90
2008,07,21,17,02,21.80
2008,07,21,17,03,21.70
2008,07,21,17,04,21.70
2008,07,21,17,05,21.60
2008,07,21,17,06,21.60
2008,07,21,17,07,21.70
2008,07,21,17,08,21.70
2008,07,21,17,09,21.80
2008,07,21,17,10,21.80
2008,07,21,17,11,21.80
2008,07,21,17,12,21.70
2008,07,21,17,13,21.60
2008,07,21,17,14,21.50
2008,07,21,17,15,21.40
2008,07,21,17,16,21.30
2008,07,21,17,17,21.30
2008,07,21,17,18,21.40
2008,07,21,17,19,21.60
2008,07,21,17,20,21.70
2008,07,21,17,21,21.80
2008,07,21,17,22,21.90
2008,07,21,17,23,22.00
2008,07,21,17,24,22.00
2008,07,21,17,25,22.00
2008,07,21,17,26,22.00
2008,07,21,17,27,22.00
2008,07,21,17,28,21.90
2008,07,21,17,29,21.90